Theta_e
341 341 340 341 342 341 340 339 340 337 336 333 332 334 333 333 333 332 329 326 330 332 331 331 330 329 328 327 327 326 325 326 324 326 325 324 325 327 328 329 329 331 332
340 340 340 340 340 341 338 339 338 336 334 331 333 334 331 333 333 332 332 330 327 330 331 330 330 328 328 326 326 325 325 324 324 324 325 324 323 323 323 325 327 328 329
340 339 339 340 339 339 339 339 337 336 333 334 334 331 331 330 333 332 332 330 329 327 330 330 329 329 327 325 325 325 324 324 324 323 323 324 323 323 322 322 322 323 324
341 337 340 339 339 338 338 336 336 336 336 335 332 330 329 331 333 332 332 331 330 328 327 328 329 328 327 326 325 324 323 323 323 323 323 323 323 322 322 321 321 321 321
338 337 338 338 338 335 333 335 328 334 334 332 331 330 331 331 329 330 331 330 330 329 328 327 327 327 327 325 324 323 323 323 322 322 322 322 322 322 321 321 321 321 320
340 338 339 337 336 336 332 336 336 335 332 332 331 331 331 330 329 331 331 330 329 328 328 326 326 326 326 325 324 323 322 322 321 321 321 321 321 321 320 320 320 320 320
338 340 338 337 336 337 338 337 334 333 332 330 330 328 328 329 329 329 329 329 329 328 327 327 327 325 324 325 324 324 322 322 321 320 320 320 320 320 320 320 319 319 320
340 340 338 338 337 336 336 335 333 333 332 331 330 330 327 328 329 327 327 329 328 327 327 328 326 325 323 324 323 322 322 321 320 320 320 319 319 319 319 318 319 318 318
339 338 337 335 335 335 333 334 332 332 331 330 331 328 325 326 326 327 327 326 326 328 327 326 325 324 323 323 322 321 321 321 321 321 319 319 319 318 318 318 317 317 317
339 337 335 334 335 336 331 333 333 331 331 329 330 329 327 325 324 324 324 325 327 326 325 325 324 323 323 323 321 320 319 320 320 321 320 319 318 318 317 317 316 316 316
337 337 335 335 336 336 335 333 333 332 331 329 328 328 327 325 325 322 323 324 324 325 324 324 323 323 323 321 321 320 318 318 319 320 320 320 319 318 317 316 316 315 315
337 337 337 336 336 333 335 333 331 330 329 328 327 326 326 326 325 323 321 322 324 320 320 321 320 321 320 322 322 320 318 316 318 317 316 317 318 318 317 317 315 315 314
331 334 337 336 333 332 332 330 329 329 327 326 326 326 325 325 325 324 324 322 322 320 317 316 316 317 319 320 320 319 319 318 316 315 313 312 314 317 317 316 315 314 313
323 330 336 335 333 331 330 329 329 328 327 324 322 322 325 324 324 324 323 322 321 319 313 312 313 314 315 315 318 319 319 319 316 314 313 312 311 312 316 315 314 313 312
324 322 328 333 331 330 329 328 327 326 326 325 325 324 324 324 323 323 323 323 322 319 316 308 310 310 312 314 316 317 318 317 316 314 313 312 314 314 315 315 313 311 310
324 320 322 330 330 328 328 327 327 325 326 325 324 323 324 323 322 322 322 320 321 319 312 309 307 308 311 312 313 314 313 313 313 313 313 313 313 314 312 311 309 308 307
320 321 321 328 328 327 327 326 326 325 324 323 323 323 323 322 322 322 321 320 319 317 309 306 306 307 308 309 310 311 310 309 308 308 308 308 308 308 307 307 306 306 305
322 321 327 326 327 327 325 325 324 324 323 323 322 323 323 321 321 321 320 319 317 315 311 306 304 304 305 306 307 307 306 305 304 304 304 303 304 305 304 304 303 303 304
326 328 324 325 326 325 324 324 323 323 322 321 323 323 322 321 320 320 319 316 315 313 311 306 303 303 303 304 302 301 300 300 299 299 299 300 300 301 301 302 302 302 301
326 325 325 324 324 324 324 323 322 322 321 321 322 321 321 320 318 318 316 313 311 309 308 306 304 303 303 303 303 300 298 299 297 297 297 298 297 299 299 297 298 298 298
324 322 323 324 323 323 323 322 322 322 320 319 319 319 318 317 316 315 314 310 309 307 306 304 303 301 299 298 298 299 297 296 294 294 294 294 294 294 294 295 296 296 295
323 323 323 324 323 322 322 322 321 319 317 316 314 313 312 311 310 309 308 307 306 305 301 298 296 295 294 296 295 295 295 296 294 292 293 293 293 292 293 292 293 293 292
321 322 323 323 322 321 322 321 319 316 314 312 311 308 304 303 303 301 300 300 299 298 296 295 293 293 293 294 294 294 294 293 290 288 293 291 291 293 293 292 291 290 290
320 321 321 321 320 319 320 319 317 313 311 309 308 304 300 299 298 299 298 296 295 294 293 293 293 293 293 293 293 293 294 292 291 288 289 289 288 289 291 290 290 289 289
319 319 319 318 316 313 317 316 313 308 304 302 302 301 300 300 298 297 294 294 294 294 294 293 292 291 291 291 291 292 290 290 290 286 286 287 286 288 287 287 287 288 287
317 318 317 316 314 309 314 313 309 303 302 301 301 300 299 298 296 292 292 292 291 291 289 288 288 287 287 287 287 287 287 286 286 285 285 286 285 286 286 285 286 286 286
Wind_Speed
14 13 13 11 13 14 14 14 15 12 7 10 7 7 4 7 8 8 9 7 8 8 9 11 13 15 16 17 19 21 22 23 25 25 27 28 29 30 31 29 31 34 37
15 13 12 13 12 12 13 14 15 17 11 10 10 5 2 7 6 7 6 5 5 7 8 10 11 13 15 16 17 19 20 21 22 24 26 28 29 29 29 30 30 31 31
22 19 14 17 14 12 11 13 14 11 14 12 8 10 6 2 2 5 6 4 3 5 7 8 9 11 13 14 15 17 18 19 20 22 24 25 26 27 29 30 29 29 29
21 17 15 12 13 13 13 12 11 12 17 15 13 5 2 4 7 4 6 8 5 5 6 9 8 11 12 13 14 14 16 17 19 20 21 23 24 25 27 28 29 30 31
22 17 17 12 12 14 10 15 10 12 12 6 5 6 10 6 2 0 1 2 4 8 7 9 8 11 11 11 12 12 14 15 16 17 19 20 21 23 25 26 27 28 29
21 20 16 14 12 14 13 14 14 13 8 11 7 4 3 5 4 1 2 2 2 5 6 10 9 10 10 10 10 11 12 13 14 15 16 18 18 20 22 24 25 26 27
23 21 14 17 19 19 16 12 14 10 8 11 8 2 3 4 3 3 2 3 4 4 4 9 11 9 9 10 10 10 9 11 11 12 14 15 16 17 19 21 22 23 24
28 23 20 23 22 21 17 13 15 12 8 8 5 6 3 2 4 3 2 3 3 1 2 7 8 11 10 10 8 10 9 9 9 10 11 12 13 15 15 17 18 20 21
29 25 24 23 23 19 20 16 14 11 7 9 4 1 2 2 4 3 3 2 2 2 2 4 9 11 10 10 8 8 9 8 8 8 9 9 11 12 13 14 16 17 18
22 28 27 25 21 20 19 19 16 12 9 8 4 4 2 3 2 1 3 2 6 6 5 4 7 8 8 9 9 7 7 6 6 7 7 7 9 10 10 12 13 15 16
34 29 27 28 26 23 18 18 16 14 12 12 8 6 3 4 4 3 2 5 10 12 12 9 7 2 4 7 11 11 8 8 6 6 5 6 7 8 8 9 11 12 13
29 30 28 25 22 17 19 17 14 9 9 10 7 7 6 5 4 4 2 4 9 12 11 9 7 4 5 5 10 12 12 9 9 8 5 4 3 5 6 7 8 10 11
8 23 29 28 25 19 19 16 13 11 13 14 10 9 8 10 8 8 6 3 3 4 7 14 11 9 6 4 2 11 13 12 13 12 9 4 2 2 4 6 6 8 8
14 24 26 29 27 23 19 16 13 15 13 11 10 8 11 10 7 7 6 8 3 3 7 5 13 11 9 7 4 3 10 17 15 12 9 7 4 2 5 6 6 8 8
13 39 25 31 27 24 21 18 17 14 13 11 13 9 12 10 8 8 9 7 4 3 2 10 5 12 12 12 13 8 5 7 9 10 8 5 4 5 7 8 10 9 8
15 9 17 19 27 25 19 18 16 15 13 12 12 10 10 11 9 7 10 9 9 6 3 2 10 11 13 17 19 19 21 22 19 16 13 11 10 10 11 13 9 8 7
19 24 13 13 24 22 20 20 18 18 19 15 12 12 11 12 11 9 11 10 9 9 9 5 7 9 14 16 17 16 16 20 22 19 17 13 13 13 11 9 7 7 9
26 28 26 16 19 21 20 20 21 19 18 16 14 14 11 11 10 9 10 10 9 8 11 11 10 11 14 14 15 16 15 15 17 19 19 18 18 16 15 12 11 9 11
29 29 22 24 17 21 20 20 19 19 18 15 13 15 12 11 11 10 11 11 10 10 10 16 9 8 10 13 15 17 18 18 20 16 18 18 18 17 15 13 13 11 8
21 21 22 25 26 24 24 22 22 21 18 15 12 12 10 9 11 12 13 13 13 18 19 20 17 12 11 9 8 13 16 15 17 12 13 14 15 16 16 13 14 12 9
16 17 21 21 25 25 26 26 24 22 19 17 16 13 11 11 12 13 16 17 19 22 21 21 17 15 15 15 15 12 15 14 16 16 12 13 10 11 12 13 16 19 18
19 20 19 27 27 25 23 24 23 24 23 24 27 26 24 25 26 26 26 24 21 20 21 23 21 22 20 15 15 14 15 4 5 14 11 14 11 11 11 11 11 13 14
20 20 23 25 27 25 22 23 24 26 27 27 26 27 26 29 33 33 31 31 29 26 22 23 26 20 19 15 14 14 14 16 15 19 12 17 16 14 10 11 9 9 11
21 22 23 25 27 25 23 25 27 28 28 26 27 28 30 26 23 25 27 28 26 24 22 23 23 20 17 13 12 9 7 17 16 21 12 13 17 13 10 14 13 10 11
21 22 25 28 31 29 27 30 32 35 35 29 23 24 28 26 23 23 28 34 32 29 25 24 24 23 23 20 11 9 20 13 7 18 20 9 17 12 16 14 14 12 12
25 27 27 28 30 31 29 32 39 33 31 32 29 28 26 25 23 23 29 30 29 22 22 23 23 23 24 24 23 22 19 24 12 8 22 9 16 15 4 15 15 16 14
Wind_Direction
237 199 207 206 214 211 209 215 216 221 226 209 233 240 219 131 117 119 98 77 88 78 72 74 74 67 63 61 61 59 55 54 54 53 52 52 52 52 51 51 49 50 51
223 223 225 223 215 210 223 218 216 219 193 183 270 214 135 106 128 116 126 85 94 102 88 82 84 80 74 68 64 63 60 56 56 55 56 55 55 54 55 54 53 53 54
211 218 224 234 212 215 215 217 211 219 178 215 210 215 165 150 134 151 157 118 141 130 121 102 95 92 84 75 70 67 65 62 60 59 58 58 56 56 57 58 56 55 53
213 206 220 202 208 209 210 197 203 206 227 197 209 166 61 156 109 143 143 144 144 159 141 124 113 105 96 89 78 71 69 64 62 61 60 60 60 58 58 57 58 57 57
210 218 216 211 210 215 227 176 128 204 208 164 81 106 94 123 127 32 102 185 182 175 167 151 149 126 113 98 88 81 75 70 65 63 64 62 60 62 60 60 58 56 55
194 211 208 201 198 190 167 168 174 193 161 142 142 123 95 104 165 234 118 104 139 164 188 171 162 148 133 116 107 93 82 76 68 68 66 67 65 63 63 60 59 59 57
190 194 188 177 175 170 176 174 165 169 116 155 138 173 226 181 146 143 106 108 99 79 172 181 166 164 150 139 123 108 92 87 77 73 69 70 68 66 63 62 58 56 58
185 183 182 183 173 170 172 168 164 161 167 149 168 202 166 162 158 147 188 130 58 129 123 178 182 180 155 150 144 133 119 102 88 81 74 71 69 68 66 62 62 60 55
184 176 178 162 168 168 172 169 172 167 145 199 217 232 33 102 116 82 77 11 61 75 204 218 138 159 169 162 157 158 140 127 118 108 92 78 72 70 66 66 63 61 58
199 178 171 172 170 169 167 166 175 175 172 171 220 209 92 79 134 88 104 120 91 80 47 52 111 143 168 173 166 167 163 153 133 122 113 105 90 78 70 65 62 61 61
204 180 170 167 170 156 161 171 175 181 196 172 169 168 186 97 79 101 139 122 86 75 81 96 85 113 216 214 192 179 179 170 169 132 116 113 107 97 89 74 67 61 59
195 174 171 171 172 165 168 170 167 172 149 144 162 128 102 89 96 88 103 101 115 71 73 67 56 44 9 258 229 211 192 183 194 178 152 100 114 116 102 102 84 75 61
275 190 173 168 164 161 161 161 163 151 144 143 132 116 100 101 115 118 117 99 115 98 67 53 49 53 42 49 275 226 221 205 185 175 173 177 167 179 146 127 107 95 78
123 251 185 164 158 151 152 158 153 143 146 135 127 129 117 107 116 120 135 138 105 110 70 35 40 44 38 28 350 285 233 218 197 189 195 202 209 244 205 162 132 117 97
345 12 339 155 151 149 149 148 146 136 130 131 125 120 118 114 121 113 111 113 129 127 84 32 55 49 60 72 82 76 170 184 193 200 204 228 274 297 214 176 132 120 109
195 6 26 148 147 141 146 141 140 133 135 130 127 122 123 125 114 112 109 94 86 109 115 113 67 65 78 87 88 92 89 84 85 93 95 90 91 104 115 138 128 123 100
156 185 240 151 136 137 141 133 137 131 121 125 135 129 121 132 127 115 102 95 91 102 112 106 96 85 80 85 86 87 87 85 74 72 72 69 64 66 66 60 70 96 107
161 180 171 166 144 137 137 134 133 130 130 131 131 125 127 124 123 117 103 98 97 100 125 122 101 84 86 86 85 82 76 69 72 65 64 60 60 62 61 58 65 92 102
161 161 155 148 158 140 136 137 139 136 129 131 123 129 127 130 122 112 108 106 103 110 127 137 116 101 86 82 80 79 72 71 65 66 64 61 61 60 58 60 83 86 81
159 160 160 156 155 144 137 134 131 125 126 130 122 120 123 130 122 120 112 109 112 108 113 109 103 96 88 78 70 96 85 80 73 71 63 65 63 66 56 48 43 42 61
162 156 142 148 145 139 140 136 133 134 130 120 112 111 107 111 112 109 113 112 112 108 105 104 94 82 71 62 53 63 110 101 70 59 68 63 64 55 53 51 63 61 60
133 131 145 148 148 145 145 141 138 134 128 122 110 105 101 100 95 94 93 92 92 100 98 94 85 74 58 66 67 62 80 123 38 33 71 61 53 58 65 56 45 42 34
133 137 139 142 141 141 148 141 137 133 128 122 119 114 102 101 102 99 93 89 82 81 97 103 88 73 66 59 75 78 79 87 76 36 76 49 47 72 70 61 51 21 33
143 141 134 137 137 142 144 138 138 130 121 119 119 116 109 102 111 111 106 97 87 85 90 90 87 78 70 72 74 62 85 113 76 45 38 53 24 57 67 56 46 47 39
142 137 136 135 132 133 145 144 133 119 110 105 108 117 112 105 104 111 109 101 95 90 86 83 80 74 66 63 73 100 59 73 74 39 33 54 27 62 64 49 35 31 25
130 135 133 139 140 133 145 143 132 117 109 110 111 109 104 105 104 105 105 104 101 100 96 85 77 70 66 65 65 68 69 66 59 39 20 39 26 23 14 23 38 21 18